Tracking 32412 objects as of 6-Dec-2025
HD Live streaming from Space Station
objects crossing your sky now

STARLINK-5966

Track STARLINK-5966 now!
10-day predictions
STARLINK-5966 is classified as:


NORAD ID: 56919
Int'l Code: 2023-083AV
Perigee: 565.3 km
Apogee: 567.2 km
Inclination: 43.0 °
Period: 95.8 minutes
Semi major axis: 6937 km
RCS: Unknown
Launch date: June 12, 2023
Source: United States (US)
Launch site: AIR FORCE EASTERN TEST RANGE (AFETR)
Your satellite tracking list
Your tracking list is empty




NASA's NSSDC Master Catalog

Two Line Element Set (TLE):
1 56919U 23083AV  25340.04474649 -.00002449  00000-0 -16637-3 0  9995
2 56919  43.0088 217.6217 0001354 258.9355 101.1336 15.02516811137737
Source of the keplerian elements: AFSPC